Flag for Canada Weather past 2 weeks in Laval, Quebec, Canada

Now
61 °F

Mostly cloudy.


Feels Like: 61 °F
Forecast: 56 / 70 °F
Wind: 8 mph from West

Location: Montreal / Mirabel

Current Time: Jul 1, 2015 at 9:21:39 PM

Latest Report: Jul 1, 2015 at 9:00 PM


Visibility: 25 mi

Pressure: 29.66 "Hg

Humidity: 88%

Dew point: 57 °F

Location of LavalLocation

Historic Weather in Laval — Graph

°F

Laval temperature yesterday

Maximum temperature yesterday: 75 °F (at 2:00 PM)
Minimum temperature yesterday: 55 °F (at 4:00 AM)
Average temperature yesterday: 64 °F

Past Weeks' High & Low Weather Summary

 TemperatureHumidityPressure
High79 °F (Jun 18, 5:00 PM)100% (Jun 18, 11:00 PM)30.23 "Hg (Jun 18, 11:00 PM)
Low45 °F (Jun 20, 4:00 AM)35% (Jun 25, 3:00 PM)29.51 "Hg (Jun 23, 2:00 PM)
Average63 °F75%29.93 "Hg
* Reported Jun 16 8:00 PM — Jul 1 8:00 PM, Laval, Weather by CustomWeather, © 2015

Note: Actual official high and low records may vary slightly from our data, if they occured in-between our weather recording intervals... More about our weather records

Advertising

Laval weather history for previous 24 hours

 ConditionsComfort  
Time TempWeatherWind HumidityBarometerVisibility
8:00 PM
Wed, Jul 1
64 °FPartly sunny.12 mph88%29.62 "Hg25 mi
7:00 PM64 °FMore clouds than sun.6 mph100%29.59 "Hg15 mi
6:00 PM64 °FSprinkles. More clouds than sun.6 mph94%29.60 "Hg25 mi
5:00 PM68 °FThunderstorms. Mostly cloudy.7 mph88%29.59 "Hg10 mi
4:55 PM70 °FThunderstorms. Mostly cloudy.9 mph83%29.59 "Hg25 mi
4:00 PM68 °FSprinkles. Partly sunny.8 mph88%29.59 "Hg25 mi
3:00 PM66 °FSprinkles. Mostly cloudy.7 mph94%29.59 "Hg15 mi
2:52 PM68 °FMostly cloudy.8 mph88%29.59 "Hg15 mi
2:00 PM68 °FSprinkles. Mostly cloudy.5 mph94%29.60 "Hg15 mi
1:00 PM66 °FSprinkles. Fog.3 mph94%29.63 "Hg6 mi
12:00 PM66 °FFog.5 mph94%29.65 "Hg6 mi
11:00 AM64 °FLight rain. Fog.7 mph100%29.65 "Hg6 mi
10:00 AM66 °FMostly cloudy.6 mph94%29.66 "Hg15 mi
9:00 AM64 °FFog.2 mph94%29.68 "Hg5 mi
8:00 AM64 °FLight rain. Fog.6 mph88%29.70 "Hg4 mi
7:00 AM68 °FLight rain. Fog.5 mph83%29.72 "Hg4 mi
6:00 AM66 °FLight rain. Fog.7 mph83%29.73 "Hg4 mi
5:00 AM64 °FLight rain. Mostly cloudy.5 mph88%29.75 "Hg10 mi
4:00 AM63 °FSprinkles. Mostly cloudy.5 mph94%29.77 "Hg12 mi
3:00 AM64 °FMostly cloudy.3 mph88%29.79 "Hg20 mi
2:00 AM66 °FSprinkles. Mostly cloudy.6 mph83%29.80 "Hg20 mi
1:00 AM66 °FLow clouds.6 mph83%29.83 "Hg20 mi
12:00 AM66 °FSprinkles. Low clouds.5 mph83%29.84 "Hg20 mi
11:00 PM
Tue, Jun 30
63 °FOvercast.3 mph94%29.86 "Hg25 mi
10:00 PM66 °FOvercast.7 mphN/AN/A25 mi
Weather by CustomWeather, © 2015

See weather overviewHow to use our weather pages